Epoch = 2013 Nov. 4.0 TT T = 2013 Nov. 5.99762 TT Peri. = 19.15696 e = 0.3520967 Node = 55.34006 2000.0 q = 2.7622170 AU Incl. = 19.84136 a = 4.2633165 AU n = 0.11196511 P = 8.80 years
m1 = 14.0 + 5 log d + 10.0 log r